| time (UTC) | temp F | wind direction | speed MPH | gust MPH | rain 1hr in | rain 24hr in | rain mn in | humidity % | barometer mb |
| 20260510112505 | 46 | 147 | 0.0 | 0.0 | 0.00 | 0.00 | 0.00 | 56 | 1019.9 |
| 20260510112004 | 46 | 147 | 0.0 | 0.0 | 0.00 | 0.00 | 0.00 | 55 | 1019.9 |
| 20260510111004 | 47 | 147 | 0.0 | 0.0 | 0.00 | 0.00 | 0.00 | 55 | 1019.9 |
| 20260510110504 | 46 | 147 | 0.0 | 0.0 | 0.00 | 0.00 | 0.00 | 54 | 1019.9 |
| 20260510110005 | 46 | 147 | 0.0 | 0.0 | 0.00 | 0.00 | 0.00 | 53 | 1019.9 |
| 20260510105505 | 46 | 147 | 0.0 | 0.0 | 0.00 | 0.00 | 0.00 | 58 | 1019.8 |
| 20260510105005 | 46 | 147 | 0.0 | 0.0 | 0.00 | 0.00 | 0.00 | 58 | 1019.9 |
| 20260510104504 | 46 | 147 | 0.0 | 0.0 | 0.00 | 0.00 | 0.00 | 59 | 1019.8 |
| 20260510104005 | 47 | 147 | 0.0 | 0.0 | 0.00 | 0.00 | 0.00 | 60 | 1019.8 |
| 20260510103004 | 47 | 147 | 0.0 | 0.0 | 0.00 | 0.00 | 0.00 | 57 | 1019.8 |
| 20260510102505 | 47 | 147 | 0.0 | 0.0 | 0.00 | 0.00 | 0.00 | 56 | 1019.8 |
| 20260510102004 | 47 | 147 | 0.0 | 0.0 | 0.00 | 0.00 | 0.00 | 54 | 1019.8 |
| 20260510101005 | 47 | 147 | 0.0 | 0.0 | 0.00 | 0.00 | 0.00 | 53 | 1019.8 |
| 20260510100505 | 46 | 147 | 0.0 | 0.0 | 0.00 | 0.00 | 0.00 | 55 | 1019.8 |
| 20260510100005 | 46 | 147 | 0.0 | 0.0 | 0.00 | 0.00 | 0.00 | 56 | 1019.8 |
| 20260510095505 | 46 | 147 | 0.0 | 0.0 | 0.00 | 0.00 | 0.00 | 57 | 1019.8 |
| 20260510094505 | 47 | 147 | 0.0 | 0.0 | 0.00 | 0.00 | 0.00 | 57 | 1019.7 |
| 20260510094004 | 47 | 147 | 0.0 | 0.0 | 0.00 | 0.00 | 0.00 | 56 | 1019.7 |
| 20260510093005 | 47 | 147 | 0.0 | 0.0 | 0.00 | 0.00 | 0.00 | 53 | 1019.6 |
| 20260510092504 | 48 | 147 | 0.0 | 0.0 | 0.00 | 0.00 | 0.00 | 54 | 1019.6 |
| 20260510091505 | 48 | 147 | 0.0 | 0.0 | 0.00 | 0.00 | 0.00 | 55 | 1019.6 |
| 20260510091004 | 48 | 147 | 0.0 | 0.0 | 0.00 | 0.00 | 0.00 | 55 | 1019.6 |
| 20260510090505 | 48 | 147 | 0.0 | 0.0 | 0.00 | 0.00 | 0.00 | 56 | 1019.6 |
| 20260510090005 | 48 | 147 | 0.0 | 0.0 | 0.00 | 0.00 | 0.00 | 56 | 1019.6 |
| 20260510085005 | 48 | 147 | 0.0 | 0.0 | 0.00 | 0.00 | 0.00 | 55 | 1019.6 |
| 20260510084505 | 48 | 147 | 0.0 | 0.0 | 0.00 | 0.00 | 0.00 | 54 | 1019.6 |
| 20260510084005 | 48 | 147 | 0.0 | 0.0 | 0.00 | 0.00 | 0.00 | 53 | 1019.6 |
| 20260510083505 | 49 | 147 | 0.0 | 0.0 | 0.00 | 0.00 | 0.00 | 52 | 1019.7 |
| 20260510083005 | 49 | 147 | 0.0 | 0.0 | 0.00 | 0.00 | 0.00 | 54 | 1019.6 |
| 20260510082505 | 49 | 147 | 0.0 | 0.0 | 0.00 | 0.00 | 0.00 | 53 | 1019.6 |
| 20260510082005 | 49 | 147 | 0.0 | 0.0 | 0.00 | 0.00 | 0.00 | 52 | 1019.5 |
| 20260510081505 | 50 | 147 | 0.0 | 0.0 | 0.00 | 0.00 | 0.00 | 52 | 1019.5 |
| 20260510081005 | 50 | 147 | 0.0 | 0.0 | 0.00 | 0.00 | 0.00 | 51 | 1019.6 |
| 20260510080506 | 50 | 147 | 0.0 | 0.0 | 0.00 | 0.00 | 0.00 | 49 | 1019.6 |
| 20260510080005 | 50 | 147 | 0.0 | 0.0 | 0.00 | 0.00 | 0.00 | 50 | 1019.6 |
| 20260510075005 | 51 | 147 | 0.0 | 0.0 | 0.00 | 0.00 | 0.00 | 50 | 1019.6 |
| 20260510074505 | 51 | 147 | 0.0 | 0.0 | 0.00 | 0.00 | 0.00 | 48 | 1019.6 |
| 20260510074004 | 51 | 147 | 0.0 | 0.0 | 0.00 | 0.00 | 0.00 | 47 | 1019.6 |
| 20260510073505 | 51 | 147 | 0.0 | 0.0 | 0.00 | 0.00 | 0.00 | 50 | 1019.7 |
| 20260510073004 | 51 | 147 | 0.0 | 0.0 | 0.00 | 0.00 | 0.00 | 48 | 1019.7 |
| 20260510072505 | 51 | 147 | 0.0 | 0.0 | 0.00 | 0.00 | 0.00 | 49 | 1019.7 |
| 20260510072005 | 52 | 147 | 0.0 | 0.0 | 0.00 | 0.00 | 0.00 | 48 | 1019.6 |
| 20260510071005 | 52 | 147 | 0.0 | 0.0 | 0.00 | 0.00 | 0.00 | 48 | 1019.6 |
| 20260510070504 | 52 | 147 | 0.0 | 0.0 | 0.00 | 0.00 | 0.00 | 48 | 1019.6 |
| 20260510065505 | 53 | 147 | 0.0 | 0.0 | 0.00 | 0.00 | 0.00 | 44 | 1019.4 |
| 20260510065005 | 53 | 147 | 0.0 | 0.0 | 0.00 | 0.00 | 0.00 | 44 | 1019.3 |
| 20260510064504 | 53 | 147 | 0.0 | 0.0 | 0.00 | 0.00 | 0.00 | 44 | 1019.2 |
| 20260510064004 | 53 | 147 | 0.0 | 0.0 | 0.00 | 0.00 | 0.00 | 44 | 1019.2 |
| 20260510063505 | 53 | 147 | 0.0 | 0.0 | 0.00 | 0.00 | 0.00 | 43 | 1019.2 |
| 20260510063005 | 53 | 147 | 0.0 | 0.0 | 0.00 | 0.00 | 0.00 | 45 | 1019.2 |
| 20260510062504 | 53 | 147 | 0.0 | 0.0 | 0.00 | 0.00 | 0.00 | 43 | 1019.2 |
| 20260510061005 | 54 | 147 | 0.0 | 0.0 | 0.00 | 0.00 | 0.00 | 44 | 1019.2 |
| 20260510060505 | 54 | 147 | 0.0 | 0.0 | 0.00 | 0.00 | 0.00 | 42 | 1019.2 |
| 20260510060005 | 54 | 147 | 0.0 | 0.0 | 0.00 | 0.00 | 0.00 | 43 | 1019.2 |
| 20260510055504 | 54 | 147 | 0.0 | 0.0 | 0.00 | 0.00 | 0.00 | 42 | 1019.3 |
| 20260510055004 | 55 | 147 | 0.0 | 0.0 | 0.00 | 0.00 | 0.00 | 42 | 1019.3 |
| 20260510054505 | 55 | 147 | 0.0 | 0.0 | 0.00 | 0.00 | 0.00 | 43 | 1019.3 |
| 20260510054005 | 55 | 147 | 0.0 | 1.0 | 0.00 | 0.00 | 0.00 | 41 | 1019.4 |
| 20260510052505 | 55 | 335 | 0.0 | 0.0 | 0.00 | 0.00 | 0.00 | 40 | 1019.4 |
| 20260510052006 | 56 | 335 | 0.0 | 0.0 | 0.00 | 0.00 | 0.00 | 41 | 1019.4 |
| 20260510051005 | 56 | 335 | 0.0 | 0.0 | 0.00 | 0.00 | 0.00 | 40 | 1019.3 |
| 20260510050504 | 57 | 335 | 0.0 | 0.0 | 0.00 | 0.00 | 0.00 | 39 | 1019.3 |
| 20260510045505 | 57 | 335 | 0.0 | 0.0 | 0.00 | 0.00 | 0.00 | 38 | 1019.3 |
| 20260510045004 | 58 | 335 | 0.0 | 0.0 | 0.00 | 0.00 | 0.00 | 37 | 1019.3 |
| 20260510044504 | 58 | 335 | 0.0 | 0.0 | 0.00 | 0.00 | 0.00 | 37 | 1019.2 |
| 20260510043005 | 59 | 335 | 0.0 | 0.0 | 0.00 | 0.00 | 0.00 | 36 | 1019.0 |
| 20260510042504 | 60 | 335 | 0.0 | 0.0 | 0.00 | 0.00 | 0.00 | 36 | 1019.0 |
| 20260510042005 | 60 | 335 | 0.0 | 0.0 | 0.00 | 0.00 | 0.00 | 37 | 1019.0 |
| 20260510041504 | 60 | 335 | 0.0 | 0.0 | 0.00 | 0.00 | 0.00 | 35 | 1018.8 |
| 20260510041005 | 61 | 335 | 0.0 | 0.0 | 0.00 | 0.00 | 0.00 | 34 | 1018.8 |
| 20260510040505 | 61 | 335 | 0.0 | 0.0 | 0.00 | 0.00 | 0.00 | 33 | 1018.7 |
| 20260510040004 | 62 | 335 | 0.0 | 0.0 | 0.00 | 0.00 | 0.00 | 31 | 1018.6 |
| 20260510035505 | 62 | 335 | 0.0 | 0.0 | 0.00 | 0.00 | 0.00 | 32 | 1018.5 |
| 20260510034504 | 63 | 335 | 0.0 | 0.0 | 0.00 | 0.00 | 0.00 | 31 | 1018.4 |
| 20260510034005 | 64 | 335 | 0.0 | 0.0 | 0.00 | 0.00 | 0.00 | 32 | 1018.3 |
| 20260510033505 | 64 | 335 | 0.0 | 0.0 | 0.00 | 0.00 | 0.00 | 31 | 1018.2 |
| 20260510033005 | 65 | 335 | 0.0 | 0.0 | 0.00 | 0.00 | 0.00 | 34 | 1018.2 |
| 20260510032505 | 66 | 335 | 0.0 | 0.0 | 0.00 | 0.00 | 0.00 | 31 | 1018.1 |
| 20260510032005 | 66 | 335 | 0.0 | 0.0 | 0.00 | 0.00 | 0.00 | 30 | 1018.1 |
| 20260510031506 | 66 | 335 | 0.0 | 0.0 | 0.00 | 0.00 | 0.00 | 29 | 1018.0 |
| 20260510031005 | 67 | 335 | 0.0 | 0.0 | 0.00 | 0.00 | 0.00 | 29 | 1018.0 |
| 20260510030505 | 68 | 335 | 0.0 | 0.0 | 0.00 | 0.00 | 0.00 | 27 | 1017.9 |
| 20260510030004 | 68 | 335 | 0.0 | 0.0 | 0.00 | 0.00 | 0.00 | 28 | 1017.9 |
| 20260510024504 | 70 | 335 | 0.0 | 0.0 | 0.00 | 0.00 | 0.00 | 28 | 1017.6 |
| 20260510024005 | 71 | 335 | 0.0 | 0.0 | 0.00 | 0.00 | 0.00 | 27 | 1017.6 |
| 20260510023505 | 72 | 335 | 0.0 | 0.0 | 0.00 | 0.00 | 0.00 | 26 | 1017.6 |
| 20260510023004 | 72 | 335 | 0.0 | 0.0 | 0.00 | 0.00 | 0.00 | 25 | 1017.5 |
| 20260510022505 | 73 | 335 | 0.0 | 0.0 | 0.00 | 0.00 | 0.00 | 23 | 1017.5 |
| 20260510022004 | 74 | 335 | 0.0 | 0.0 | 0.00 | 0.00 | 0.00 | 26 | 1017.5 |
| 20260510021504 | 74 | 335 | 0.0 | 2.0 | 0.00 | 0.00 | 0.00 | 25 | 1017.5 |
| 20260510021005 | 75 | 332 | 4.0 | 5.0 | 0.00 | 0.00 | 0.00 | 26 | 1017.4 |
| 20260510020505 | 76 | 343 | 1.0 | 3.0 | 0.00 | 0.00 | 0.00 | 26 | 1017.4 |
| 20260510020005 | 77 | 333 | 1.0 | 6.0 | 0.00 | 0.00 | 0.00 | 23 | 1017.4 |
| 20260510015505 | 78 | 283 | 0.0 | 5.0 | 0.00 | 0.00 | 0.00 | 18 | 1017.4 |
| 20260510014505 | 78 | 302 | 1.0 | 2.0 | 0.00 | 0.00 | 0.00 | 14 | 1017.4 |
| 20260510014005 | 78 | 302 | 0.0 | 0.0 | 0.00 | 0.00 | 0.00 | 15 | 1017.4 |
| 20260510013504 | 78 | 302 | 0.0 | 3.0 | 0.00 | 0.00 | 0.00 | 14 | 1017.4 |
| 20260510013005 | 79 | 277 | 1.0 | 5.0 | 0.00 | 0.00 | 0.00 | 15 | 1017.4 |
| 20260510012505 | 79 | 305 | 0.0 | 2.0 | 0.00 | 0.00 | 0.00 | 14 | 1017.4 |
| 20260510012004 | 79 | 261 | 2.0 | 5.0 | 0.00 | 0.00 | 0.00 | 14 | 1017.5 |
| 20260510011505 | 79 | 306 | 2.0 | 5.0 | 0.00 | 0.00 | 0.00 | 14 | 1017.5 |
| 20260510011005 | 79 | 303 | 1.0 | 7.0 | 0.00 | 0.00 | 0.00 | 15 | 1017.6 |
| 20260510010505 | 80 | 299 | 1.0 | 3.0 | 0.00 | 0.00 | 0.00 | 15 | 1017.5 |
| 20260510010005 | 80 | 289 | 2.0 | 5.0 | 0.00 | 0.00 | 0.00 | 13 | 1017.5 |
| 20260510005504 | 80 | 303 | 2.0 | 5.0 | 0.00 | 0.00 | 0.00 | 13 | 1017.6 |
| 20260510005004 | 80 | 311 | 2.0 | 5.0 | 0.00 | 0.00 | 0.00 | 13 | 1017.6 |
| 20260510004505 | 80 | 313 | 0.0 | 2.0 | 0.00 | 0.00 | 0.00 | 13 | 1017.6 |
| 20260510004004 | 80 | 280 | 1.0 | 3.0 | 0.00 | 0.00 | 0.00 | 12 | 1017.6 |
| 20260510003505 | 80 | 210 | 0.0 | 3.0 | 0.00 | 0.00 | 0.00 | 13 | 1017.6 |
| 20260510003005 | 80 | 333 | 3.0 | 6.0 | 0.00 | 0.00 | 0.00 | 13 | 1017.6 |
| 20260510002505 | 80 | 315 | 3.0 | 5.0 | 0.00 | 0.00 | 0.00 | 13 | 1017.6 |
| 20260510001504 | 80 | 300 | 2.0 | 5.0 | 0.00 | 0.00 | 0.00 | 14 | 1017.8 |
| 20260510001005 | 79 | 330 | 3.0 | 6.0 | 0.00 | 0.00 | 0.00 | 13 | 1017.8 |
| 20260510000004 | 79 | 300 | 4.0 | 7.0 | 0.00 | 0.00 | 0.00 | 13 | 1017.9 |
| 20260509235504 | 79 | 299 | 3.0 | 6.0 | 0.00 | 0.00 | 0.00 | 15 | 1017.9 |
| 20260509234504 | 79 | 295 | 3.0 | 7.0 | 0.00 | 0.00 | 0.00 | 15 | 1018.0 |
| 20260509234005 | 79 | 295 | 3.0 | 6.0 | 0.00 | 0.00 | 0.00 | 15 | 1018.0 |
| 20260509233505 | 79 | 309 | 4.0 | 8.0 | 0.00 | 0.00 | 0.00 | 15 | 1018.0 |
| 20260509233005 | 79 | 307 | 2.0 | 7.0 | 0.00 | 0.00 | 0.00 | 16 | 1018.0 |
| 20260509232504 | 79 | 307 | 3.0 | 8.0 | 0.00 | 0.00 | 0.00 | 14 | 1018.1 |
| 20260509232004 | 79 | 299 | 4.0 | 7.0 | 0.00 | 0.00 | 0.00 | 14 | 1018.1 |
| 20260509231504 | 79 | 325 | 2.0 | 6.0 | 0.00 | 0.00 | 0.00 | 16 | 1018.1 |
| 20260509231005 | 79 | 307 | 3.0 | 6.0 | 0.00 | 0.00 | 0.00 | 16 | 1018.2 |
| 20260509230505 | 79 | 306 | 3.0 | 6.0 | 0.00 | 0.00 | 0.00 | 16 | 1018.2 |
| 20260509230005 | 79 | 324 | 3.0 | 6.0 | 0.00 | 0.00 | 0.00 | 15 | 1018.3 |
| 20260509225505 | 79 | 312 | 3.0 | 6.0 | 0.00 | 0.00 | 0.00 | 15 | 1018.4 |
| 20260509224005 | 80 | 288 | 3.0 | 6.0 | 0.00 | 0.00 | 0.00 | 14 | 1018.5 |
| 20260509222504 | 79 | 290 | 3.0 | 7.0 | 0.00 | 0.00 | 0.00 | 16 | 1018.8 |
| 20260509221004 | 80 | 289 | 3.0 | 7.0 | 0.00 | 0.00 | 0.00 | 15 | 1019.1 |
| 20260509220505 | 80 | 306 | 5.0 | 9.0 | 0.00 | 0.00 | 0.00 | 16 | 1019.1 |
| 20260509215505 | 79 | 296 | 2.0 | 6.0 | 0.00 | 0.00 | 0.00 | 15 | 1019.2 |
| 20260509215004 | 80 | 307 | 5.0 | 7.0 | 0.00 | 0.00 | 0.00 | 15 | 1019.2 |
| 20260509214504 | 80 | 279 | 4.0 | 9.0 | 0.00 | 0.00 | 0.00 | 16 | 1019.3 |
| 20260509214005 | 80 | 304 | 3.0 | 6.0 | 0.00 | 0.00 | 0.00 | 15 | 1019.4 |
| 20260509213505 | 80 | 313 | 5.0 | 9.0 | 0.00 | 0.00 | 0.00 | 16 | 1019.4 |
| 20260509213005 | 80 | 317 | 4.0 | 9.0 | 0.00 | 0.00 | 0.00 | 15 | 1019.6 |
| 20260509212504 | 79 | 326 | 4.0 | 9.0 | 0.00 | 0.00 | 0.00 | 17 | 1019.6 |
| 20260509212005 | 79 | 301 | 4.0 | 7.0 | 0.00 | 0.00 | 0.00 | 15 | 1019.7 |
| 20260509211504 | 79 | 356 | 3.0 | 7.0 | 0.00 | 0.00 | 0.00 | 16 | 1019.7 |
| 20260509211005 | 78 | 319 | 2.0 | 6.0 | 0.00 | 0.00 | 0.00 | 16 | 1019.8 |
| 20260509210504 | 79 | 304 | 3.0 | 7.0 | 0.00 | 0.00 | 0.00 | 16 | 1019.8 |
| 20260509210005 | 79 | 309 | 3.0 | 7.0 | 0.00 | 0.00 | 0.00 | 17 | 1019.9 |
| 20260509205504 | 79 | 278 | 3.0 | 7.0 | 0.00 | 0.00 | 0.00 | 17 | 1019.9 |
| 20260509205005 | 78 | 315 | 2.0 | 7.0 | 0.00 | 0.00 | 0.00 | 18 | 1019.9 |
| 20260509204505 | 78 | 333 | 5.0 | 8.0 | 0.00 | 0.00 | 0.00 | 18 | 1020.0 |
| 20260509203004 | 78 | 313 | 5.0 | 9.0 | 0.00 | 0.00 | 0.00 | 16 | 1020.2 |
| 20260509202505 | 78 | 309 | 3.0 | 8.0 | 0.00 | 0.00 | 0.00 | 18 | 1020.2 |
| 20260509202005 | 78 | 280 | 3.0 | 8.0 | 0.00 | 0.00 | 0.00 | 19 | 1020.2 |
| 20260509201504 | 78 | 326 | 3.0 | 8.0 | 0.00 | 0.00 | 0.00 | 19 | 1020.3 |
| 20260509201005 | 77 | 302 | 2.0 | 8.0 | 0.00 | 0.00 | 0.00 | 18 | 1020.2 |
| 20260509200505 | 77 | 232 | 2.0 | 6.0 | 0.00 | 0.00 | 0.00 | 19 | 1020.3 |
| 20260509195005 | 76 | 302 | 4.0 | 9.0 | 0.00 | 0.00 | 0.00 | 20 | 1020.5 |
| 20260509194505 | 76 | 309 | 3.0 | 7.0 | 0.00 | 0.00 | 0.00 | 18 | 1020.7 |
| 20260509194004 | 75 | 287 | 5.0 | 6.0 | 0.00 | 0.00 | 0.00 | 20 | 1020.8 |
| 20260509193505 | 75 | 313 | 1.0 | 5.0 | 0.00 | 0.00 | 0.00 | 20 | 1020.9 |
| 20260509192505 | 75 | 301 | 0.0 | 6.0 | 0.00 | 0.00 | 0.00 | 21 | 1021.0 |
| 20260509192005 | 75 | 1 | 4.0 | 9.0 | 0.00 | 0.00 | 0.00 | 21 | 1021.1 |
| 20260509191505 | 75 | 52 | 1.0 | 9.0 | 0.00 | 0.00 | 0.00 | 22 | 1021.1 |
| 20260509191005 | 75 | 329 | 3.0 | 9.0 | 0.00 | 0.00 | 0.00 | 22 | 1021.1 |
| 20260509190505 | 75 | 292 | 4.0 | 9.0 | 0.00 | 0.00 | 0.00 | 21 | 1021.1 |
| 20260509190006 | 75 | 298 | 2.0 | 3.0 | 0.00 | 0.00 | 0.00 | 23 | 1021.2 |
| 20260509185504 | 75 | 301 | 3.0 | 7.0 | 0.00 | 0.00 | 0.00 | 22 | 1021.2 |
| 20260509185004 | 75 | 303 | 2.0 | 7.0 | 0.00 | 0.00 | 0.00 | 23 | 1021.4 |
| 20260509184504 | 76 | 299 | 2.0 | 6.0 | 0.00 | 0.00 | 0.00 | 22 | 1021.5 |
| 20260509183005 | 76 | 291 | 3.0 | 6.0 | 0.00 | 0.00 | 0.00 | 22 | 1021.6 |
| 20260509182504 | 76 | 310 | 2.0 | 7.0 | 0.00 | 0.00 | 0.00 | 23 | 1021.7 |
| 20260509182004 | 75 | 319 | 6.0 | 8.0 | 0.00 | 0.00 | 0.00 | 24 | 1021.7 |
| 20260509181504 | 75 | 309 | 3.0 | 8.0 | 0.00 | 0.00 | 0.00 | 26 | 1021.7 |
| 20260509181004 | 74 | 274 | 2.0 | 8.0 | 0.00 | 0.00 | 0.00 | 26 | 1021.7 |
| 20260509180505 | 73 | 336 | 5.0 | 8.0 | 0.00 | 0.00 | 0.00 | 27 | 1021.7 |
| 20260509180005 | 72 | 341 | 3.0 | 8.0 | 0.00 | 0.00 | 0.00 | 28 | 1021.7 |
| 20260509175504 | 71 | 327 | 2.0 | 5.0 | 0.00 | 0.00 | 0.00 | 28 | 1021.6 |
| 20260509175004 | 71 | 248 | 2.0 | 6.0 | 0.00 | 0.00 | 0.00 | 28 | 1021.7 |
| 20260509174504 | 71 | 301 | 1.0 | 7.0 | 0.00 | 0.00 | 0.00 | 29 | 1021.7 |
| 20260509174005 | 71 | 289 | 2.0 | 6.0 | 0.00 | 0.00 | 0.00 | 28 | 1021.7 |
| 20260509173505 | 71 | 308 | 5.0 | 7.0 | 0.00 | 0.00 | 0.00 | 28 | 1021.7 |
| 20260509173004 | 70 | 295 | 2.0 | 7.0 | 0.00 | 0.00 | 0.00 | 28 | 1021.6 |
| 20260509172505 | 70 | 301 | 2.0 | 5.0 | 0.00 | 0.00 | 0.00 | 29 | 1021.6 |
| 20260509172005 | 70 | 315 | 2.0 | 6.0 | 0.00 | 0.00 | 0.00 | 29 | 1021.6 |
| 20260509171504 | 70 | 284 | 2.0 | 5.0 | 0.00 | 0.00 | 0.00 | 29 | 1021.6 |
| 20260509171005 | 70 | 144 | 0.0 | 0.0 | 0.00 | 0.00 | 0.00 | 30 | 1021.6 |
| 20260509170505 | 70 | 144 | 0.0 | 0.0 | 0.00 | 0.00 | 0.00 | 30 | 1021.7 |
| 20260509165505 | 69 | 346 | 1.0 | 5.0 | 0.00 | 0.00 | 0.00 | 31 | 1021.7 |
| 20260509165005 | 69 | 313 | 2.0 | 3.0 | 0.00 | 0.00 | 0.00 | 30 | 1021.7 |
| 20260509164505 | 68 | 328 | 3.0 | 6.0 | 0.00 | 0.00 | 0.00 | 30 | 1021.7 |
| 20260509164004 | 68 | 345 | 5.0 | 8.0 | 0.00 | 0.00 | 0.00 | 32 | 1021.7 |
| 20260509163505 | 68 | 11 | 2.0 | 7.0 | 0.00 | 0.00 | 0.00 | 31 | 1021.7 |
| 20260509163004 | 68 | 351 | 2.0 | 8.0 | 0.00 | 0.00 | 0.00 | 33 | 1021.7 |
| 20260509162504 | 67 | 312 | 1.0 | 7.0 | 0.00 | 0.00 | 0.00 | 33 | 1021.7 |
| 20260509162004 | 67 | 341 | 0.0 | 7.0 | 0.00 | 0.00 | 0.00 | 38 | 1021.7 |
| 20260509161505 | 66 | 342 | 6.0 | 8.0 | 0.00 | 0.00 | 0.00 | 36 | 1021.7 |
| 20260509161005 | 65 | 28 | 3.0 | 8.0 | 0.00 | 0.00 | 0.00 | 40 | 1021.7 |
| 20260509160004 | 64 | 281 | 0.0 | 0.0 | 0.00 | 0.00 | 0.00 | 45 | 1021.8 |
| 20260509155005 | 63 | 281 | 0.0 | 0.0 | 0.00 | 0.00 | 0.00 | 48 | 1022.0 |
| 20260509154505 | 62 | 281 | 0.0 | 0.0 | 0.00 | 0.00 | 0.00 | 49 | 1022.0 |
| 20260509153505 | 61 | 281 | 0.0 | 0.0 | 0.00 | 0.00 | 0.00 | 52 | 1021.9 |
| 20260509153004 | 61 | 281 | 0.0 | 0.0 | 0.00 | 0.00 | 0.00 | 52 | 1021.9 |
| 20260509152505 | 60 | 281 | 0.0 | 0.0 | 0.00 | 0.00 | 0.00 | 53 | 1022.0 |
| 20260509152005 | 59 | 281 | 0.0 | 0.0 | 0.00 | 0.00 | 0.00 | 55 | 1022.0 |
| 20260509151505 | 59 | 281 | 0.0 | 0.0 | 0.00 | 0.00 | 0.00 | 56 | 1021.8 |
| 20260509151005 | 59 | 281 | 0.0 | 0.0 | 0.00 | 0.00 | 0.00 | 57 | 1021.9 |
| 20260509150505 | 58 | 281 | 0.0 | 1.0 | 0.00 | 0.00 | 0.00 | 56 | 1022.0 |
| 20260509150005 | 58 | 281 | 1.0 | 1.0 | 0.00 | 0.00 | 0.00 | 56 | 1021.9 |
| 20260509145505 | 58 | 339 | 0.0 | 0.0 | 0.00 | 0.00 | 0.00 | 54 | 1021.8 |
| 20260509145004 | 57 | 339 | 0.0 | 0.0 | 0.00 | 0.00 | 0.00 | 54 | 1022.0 |
| 20260509144505 | 57 | 339 | 0.0 | 0.0 | 0.00 | 0.00 | 0.00 | 58 | 1021.9 |
| 20260509144004 | 56 | 339 | 0.0 | 0.0 | 0.00 | 0.00 | 0.00 | 58 | 1021.9 |
| 20260509143504 | 55 | 339 | 0.0 | 0.0 | 0.00 | 0.00 | 0.00 | 60 | 1022.0 |
| 20260509143005 | 55 | 339 | 0.0 | 0.0 | 0.00 | 0.00 | 0.00 | 61 | 1021.8 |
| 20260509142505 | 54 | 339 | 0.0 | 0.0 | 0.00 | 0.00 | 0.00 | 63 | 1021.8 |
| 20260509142005 | 53 | 339 | 0.0 | 0.0 | 0.00 | 0.00 | 0.00 | 66 | 1021.7 |
| 20260509141505 | 52 | 339 | 0.0 | 0.0 | 0.00 | 0.00 | 0.00 | 68 | 1021.8 |
| 20260509141005 | 51 | 339 | 0.0 | 0.0 | 0.00 | 0.00 | 0.00 | 72 | 1021.7 |
| 20260509140505 | 50 | 339 | 0.0 | 0.0 | 0.00 | 0.00 | 0.00 | 74 | 1021.8 |
| 20260509140006 | 49 | 339 | 0.0 | 0.0 | 0.00 | 0.00 | 0.00 | 76 | 1021.7 |
| 20260509135504 | 48 | 339 | 0.0 | 0.0 | 0.00 | 0.00 | 0.00 | 78 | 1021.7 |
| 20260509135005 | 47 | 339 | 0.0 | 0.0 | 0.00 | 0.00 | 0.00 | 78 | 1021.6 |
| 20260509134505 | 46 | 339 | 0.0 | 0.0 | 0.00 | 0.00 | 0.00 | 79 | 1021.6 |
| 20260509134005 | 46 | 339 | 0.0 | 0.0 | 0.00 | 0.00 | 0.00 | 81 | 1021.6 |
| 20260509133504 | 45 | 339 | 0.0 | 0.0 | 0.00 | 0.00 | 0.00 | 82 | 1021.5 |
| 20260509133005 | 45 | 339 | 0.0 | 0.0 | 0.00 | 0.00 | 0.00 | 82 | 1021.5 |
| 20260509132505 | 45 | 339 | 0.0 | 0.0 | 0.00 | 0.00 | 0.00 | 81 | 1021.5 |
| 20260509132004 | 45 | 339 | 0.0 | 0.0 | 0.00 | 0.00 | 0.00 | 81 | 1021.5 |
| 20260509131504 | 45 | 339 | 0.0 | 0.0 | 0.00 | 0.00 | 0.00 | 80 | 1021.4 |
| 20260509131005 | 46 | 339 | 0.0 | 0.0 | 0.00 | 0.00 | 0.00 | 79 | 1021.3 |
| 20260509130505 | 46 | 339 | 0.0 | 0.0 | 0.00 | 0.00 | 0.00 | 78 | 1021.2 |
| 20260509130005 | 45 | 339 | 0.0 | 0.0 | 0.00 | 0.00 | 0.00 | 79 | 1021.2 |
| 20260509125504 | 45 | 339 | 0.0 | 0.0 | 0.00 | 0.00 | 0.00 | 80 | 1021.1 |
| 20260509124505 | 45 | 339 | 0.0 | 0.0 | 0.00 | 0.00 | 0.00 | 81 | 1021.1 |
| 20260509124005 | 45 | 339 | 0.0 | 0.0 | 0.00 | 0.00 | 0.00 | 80 | 1021.1 |
| 20260509123505 | 45 | 339 | 0.0 | 0.0 | 0.00 | 0.00 | 0.00 | 81 | 1021.0 |
| 20260509123004 | 46 | 339 | 0.0 | 0.0 | 0.00 | 0.00 | 0.00 | 81 | 1021.0 |
| 20260509122505 | 46 | 339 | 0.0 | 0.0 | 0.00 | 0.00 | 0.00 | 81 | 1021.1 |
| 20260509122004 | 46 | 339 | 0.0 | 0.0 | 0.00 | 0.00 | 0.00 | 81 | 1021.0 |
| 20260509121005 | 46 | 339 | 0.0 | 0.0 | 0.00 | 0.00 | 0.00 | 80 | 1021.0 |
| 20260509120504 | 46 | 339 | 0.0 | 0.0 | 0.00 | 0.00 | 0.00 | 80 | 1021.0 |
| 20260509115504 | 46 | 339 | 0.0 | 0.0 | 0.00 | 0.00 | 0.00 | 80 | 1020.9 |
| 20260509114004 | 46 | 339 | 0.0 | 0.0 | 0.00 | 0.00 | 0.00 | 81 | 1020.9 |
| 20260509113505 | 46 | 339 | 0.0 | 0.0 | 0.00 | 0.00 | 0.00 | 81 | 1020.9 |
| 20260509113005 | 46 | 339 | 0.0 | 0.0 | 0.00 | 0.00 | 0.00 | 81 | 1020.9 |